Location: Innsbruck
(47.2657°N, 11.3914°E)
Time: 00:16:38
(UTC+02:00)

Nauka - Pass Details

Date: 21 September 2021
Orbit: 417 x 423 km, 51.6° (Epoch: 16 October)

Event Time Altitude Azimuth Distance (km) Brightness Sun altitude
Rises 19:59:26 0° 243° (WSW) 2,354 ? -8.5°
Reaches altitude 10° 20:01:32 10° 244° (WSW) 1,494 ? -8.8°
Maximum altitude 20:04:53 89° 166° (SSE) 424 ? -9.4°
Drops below altitude 10° 20:08:16 10° 65° (ENE) 1,504 ? -10.0°
Enters shadow 20:08:16 10° 65° (ENE) 1,505 ? -10.0°
